User: anonymous   Login
Location: Caltech
(34.1382°N, 118.1253°W)
Time: 16:31:59
(UTC-07:00)
Language:

Cosmos 1408 Rocket - Orbit

View from above orbital plane
View from above orbital plane
View from above satellite
View from above satellite

Ground track
Ground track

The orbit data is extracted from the following two-line orbital elements,

1 13553U 82092B   14303.85633909  .00000551  00000-0  63703-4 0   571
2 13553 082.5715 048.5882 0020737 341.0289 158.3396 14.83648231734614
Epoch (UTC): 30 October 2014 20:33:07
Eccentricity: 0.0020737
inclination: 82.5715°
perigee height: 603 km
apogee height: 632 km
right ascension of ascending node: 48.5882°
argument of perigee: 341.0289°
revolutions per day: 14.83648231
mean anomaly at epoch: 158.3396°
orbit number at epoch: 73461

The dashed part of the orbit path shows where the satellite is in the earth's shadow,  

DLR